| time (UTC) | temp C | wind direction | speed KPH | gust KPH | rain 1hr cm | rain 24hr cm | rain mn cm | humidity % | barometer mb |
| 20260509155517 | 32 | 227 | 3.2 | 16.1 | 0.00 | 0.00 | 0.00 | 52 | 1012.5 |
| 20260509155017 | 32 | 243 | 1.6 | 16.1 | 0.00 | 0.00 | 0.00 | 54 | 1012.5 |
| 20260509154542 | 31 | 278 | 9.7 | 16.1 | 0.00 | 0.00 | 0.00 | 53 | 1012.5 |
| 20260509154017 | 32 | 0 | 3.2 | 14.5 | 0.00 | 0.00 | 0.00 | 53 | 1012.5 |
| 20260509153518 | 31 | 242 | 4.8 | 16.1 | 0.00 | 0.00 | 0.00 | 55 | 1012.5 |
| 20260509153048 | 31 | 233 | 6.4 | 17.7 | 0.00 | 0.00 | 0.00 | 57 | 1012.7 |
| 20260509152518 | 30 | 250 | 8.0 | 17.7 | 0.00 | 0.00 | 0.00 | 57 | 1012.8 |
| 20260509152018 | 30 | 290 | 11.3 | 17.7 | 0.00 | 0.00 | 0.00 | 57 | 1012.7 |
| 20260509151541 | 31 | 286 | 1.6 | 14.5 | 0.00 | 0.00 | 0.00 | 57 | 1013.0 |
| 20260509151021 | 30 | 188 | 3.2 | 14.5 | 0.00 | 0.00 | 0.00 | 59 | 1013.0 |
| 20260509150521 | 30 | 263 | 4.8 | 12.9 | 0.00 | 0.00 | 0.00 | 61 | 1013.1 |
| 20260509150042 | 30 | 112 | 3.2 | 12.9 | 0.00 | 0.00 | 0.00 | 61 | 1013.1 |
| 20260509145520 | 29 | 248 | 6.4 | 12.9 | 0.00 | 0.00 | 0.00 | 62 | 1013.2 |
| 20260509145018 | 30 | 242 | 1.6 | 11.3 | 0.00 | 0.00 | 0.00 | 65 | 1013.2 |
| 20260509144534 | 28 | 269 | 1.6 | 11.3 | 0.00 | 0.00 | 0.00 | 67 | 1013.3 |
| 20260509144018 | 28 | 285 | 4.8 | 11.3 | 0.00 | 0.00 | 0.00 | 69 | 1013.3 |
| 20260509143518 | 28 | 277 | 0.0 | 11.3 | 0.00 | 0.00 | 0.00 | 70 | 1013.3 |
| 20260509143051 | 27 | 132 | 3.2 | 12.9 | 0.00 | 0.00 | 0.00 | 72 | 1013.3 |
| 20260509142518 | 28 | 246 | 4.8 | 12.9 | 0.00 | 0.00 | 0.00 | 70 | 1013.2 |
| 20260509142018 | 28 | 259 | 0.0 | 4.8 | 0.00 | 0.00 | 0.00 | 70 | 1013.1 |
| 20260509141541 | 28 | 349 | 1.6 | 8.0 | 0.00 | 0.00 | 0.00 | 72 | 1013.1 |
| 20260509141019 | 27 | 227 | 1.6 | 8.0 | 0.00 | 0.00 | 0.00 | 74 | 1013.0 |
| 20260509140520 | 27 | 181 | 1.6 | 6.4 | 0.00 | 0.00 | 0.00 | 75 | 1013.0 |
| 20260509140045 | 27 | 265 | 1.6 | 4.8 | 0.00 | 0.00 | 0.00 | 76 | 1013.0 |
| 20260509135520 | 27 | 0 | 1.6 | 9.7 | 0.00 | 0.00 | 0.00 | 75 | 1013.1 |
| 20260509135020 | 27 | 207 | 1.6 | 11.3 | 0.00 | 0.00 | 0.00 | 76 | 1013.1 |
| 20260509134537 | 27 | 89 | 4.8 | 11.3 | 0.00 | 0.00 | 0.00 | 75 | 1013.1 |
| 20260509134019 | 27 | 134 | 1.6 | 12.9 | 0.00 | 0.00 | 0.00 | 77 | 1012.9 |
| 20260509133519 | 26 | 153 | 4.8 | 12.9 | 0.00 | 0.00 | 0.00 | 78 | 1012.9 |
| 20260509133040 | 26 | 139 | 6.4 | 12.9 | 0.00 | 0.00 | 0.00 | 79 | 1012.9 |
| 20260509132520 | 26 | 141 | 4.8 | 11.3 | 0.00 | 0.00 | 0.00 | 79 | 1012.9 |
| 20260509132018 | 26 | 138 | 4.8 | 11.3 | 0.00 | 0.00 | 0.00 | 80 | 1012.9 |
| 20260509131537 | 25 | 119 | 3.2 | 11.3 | 0.00 | 0.00 | 0.00 | 82 | 1013.0 |
| 20260509131018 | 25 | 156 | 1.6 | 9.7 | 0.00 | 0.00 | 0.00 | 83 | 1012.9 |
| 20260509130520 | 25 | 139 | 3.2 | 9.7 | 0.00 | 0.00 | 0.00 | 82 | 1013.1 |
| 20260509130037 | 25 | 85 | 4.8 | 11.3 | 0.00 | 0.00 | 0.00 | 84 | 1013.1 |
| 20260509125523 | 25 | 150 | 4.8 | 11.3 | 0.00 | 0.00 | 0.00 | 85 | 1013.1 |
| 20260509125019 | 24 | 123 | 4.8 | 9.7 | 0.00 | 0.00 | 0.00 | 85 | 1013.1 |
| 20260509124532 | 24 | 148 | 3.2 | 9.7 | 0.00 | 0.00 | 0.00 | 86 | 1013.0 |
| 20260509124019 | 23 | 103 | 3.2 | 11.3 | 0.00 | 0.00 | 0.00 | 88 | 1013.0 |
| 20260509123516 | 23 | 113 | 4.8 | 12.9 | 0.00 | 0.00 | 0.00 | 90 | 1013.0 |
| 20260509123035 | 23 | 106 | 4.8 | 12.9 | 0.00 | 0.00 | 0.00 | 92 | 1012.9 |
| 20260509122515 | 23 | 113 | 6.4 | 11.3 | 0.00 | 0.00 | 0.00 | 92 | 1012.9 |
| 20260509122019 | 22 | 117 | 3.2 | 9.7 | 0.00 | 0.00 | 0.00 | 94 | 1012.9 |
| 20260509121541 | 22 | 113 | 3.2 | 9.7 | 0.00 | 0.00 | 0.00 | 95 | 1013.0 |
| 20260509121018 | 22 | 120 | 3.2 | 6.4 | 0.00 | 0.00 | 0.00 | 95 | 1012.9 |
| 20260509120519 | 22 | 82 | 3.2 | 6.4 | 0.00 | 0.00 | 0.00 | 96 | 1012.8 |
| 20260509120038 | 22 | 107 | 1.6 | 6.4 | 0.00 | 0.00 | 0.00 | 96 | 1012.9 |
| 20260509115517 | 21 | 92 | 3.2 | 6.4 | 0.00 | 0.00 | 0.00 | 96 | 1013.0 |
| 20260509115018 | 22 | 0 | 1.6 | 4.8 | 0.00 | 0.00 | 0.00 | 96 | 1012.9 |
| 20260509114541 | 21 | 113 | 3.2 | 4.8 | 0.00 | 0.00 | 0.00 | 96 | 1012.7 |
| 20260509114016 | 21 | 115 | 0.0 | 3.2 | 0.00 | 0.00 | 0.00 | 96 | 1012.8 |
| 20260509113520 | 21 | 0 | 0.0 | 0.0 | 0.00 | 0.00 | 0.00 | 96 | 1012.7 |
| 20260509113041 | 21 | 0 | 0.0 | 0.0 | 0.00 | 0.00 | 0.00 | 96 | 1012.7 |
| 20260509112519 | 21 | 0 | 0.0 | 0.0 | 0.00 | 0.00 | 0.00 | 96 | 1012.6 |
| 20260509112020 | 21 | 0 | 0.0 | 0.0 | 0.00 | 0.00 | 0.00 | 96 | 1012.5 |
| 20260509111540 | 21 | 0 | 0.0 | 0.0 | 0.00 | 0.00 | 0.00 | 96 | 1012.5 |
| 20260509111020 | 21 | 0 | 0.0 | 3.2 | 0.00 | 0.00 | 0.00 | 96 | 1012.5 |
| 20260509110518 | 21 | 0 | 0.0 | 4.8 | 0.00 | 0.00 | 0.00 | 96 | 1012.5 |
| 20260509110038 | 21 | 263 | 1.6 | 4.8 | 0.00 | 0.00 | 0.00 | 96 | 1012.4 |
| 20260509105517 | 21 | 269 | 0.0 | 3.2 | 0.00 | 0.00 | 0.00 | 96 | 1012.3 |
| 20260509105018 | 21 | 248 | 0.0 | 3.2 | 0.00 | 0.00 | 0.00 | 96 | 1012.2 |
| 20260509104539 | 21 | 0 | 0.0 | 3.2 | 0.00 | 0.00 | 0.00 | 96 | 1012.1 |
| 20260509104016 | 21 | 0 | 0.0 | 3.2 | 0.00 | 0.00 | 0.00 | 96 | 1012.1 |
| 20260509103517 | 21 | 0 | 0.0 | 4.8 | 0.00 | 0.00 | 0.00 | 96 | 1012.0 |
| 20260509103041 | 21 | 0 | 0.0 | 6.4 | 0.00 | 0.00 | 0.00 | 96 | 1012.0 |
| 20260509102518 | 21 | 0 | 0.0 | 6.4 | 0.00 | 0.00 | 0.00 | 96 | 1012.0 |
| 20260509102017 | 21 | 69 | 0.0 | 3.2 | 0.00 | 0.00 | 0.00 | 96 | 1012.0 |
| 20260509101536 | 21 | 0 | 0.0 | 4.8 | 0.00 | 0.00 | 0.00 | 96 | 1011.9 |
| 20260509101017 | 21 | 0 | 0.0 | 6.4 | 0.00 | 0.00 | 0.00 | 96 | 1011.8 |
| 20260509100517 | 20 | 0 | 1.6 | 6.4 | 0.00 | 0.00 | 0.00 | 96 | 1011.7 |
| 20260509100049 | 20 | 23 | 1.6 | 4.8 | 0.00 | 0.00 | 0.00 | 96 | 1011.8 |
| 20260509095521 | 20 | 0 | 1.6 | 4.8 | 0.00 | 0.00 | 0.00 | 96 | 1011.7 |
| 20260509095017 | 18 | 0 | 0.0 | 0.0 | 0.00 | 0.00 | 0.00 | 96 | 1011.8 |
| 20260509094542 | 18 | 0 | 0.0 | 0.0 | 0.00 | 0.00 | 0.00 | 95 | 1011.8 |
| 20260509094017 | 18 | 0 | 0.0 | 0.0 | 0.00 | 0.00 | 0.00 | 95 | 1011.7 |
| 20260509093517 | 18 | 0 | 0.0 | 0.0 | 0.00 | 0.00 | 0.00 | 95 | 1011.9 |
| 20260509093042 | 18 | 0 | 0.0 | 0.0 | 0.00 | 0.00 | 0.00 | 95 | 1011.7 |
| 20260509092517 | 18 | 0 | 0.0 | 0.0 | 0.00 | 0.00 | 0.00 | 95 | 1011.9 |
| 20260509092021 | 19 | 0 | 0.0 | 0.0 | 0.00 | 0.00 | 0.00 | 95 | 1011.9 |
| 20260509091538 | 19 | 0 | 0.0 | 0.0 | 0.00 | 0.00 | 0.00 | 95 | 1011.8 |
| 20260509091017 | 19 | 0 | 0.0 | 0.0 | 0.00 | 0.00 | 0.00 | 95 | 1011.9 |
| 20260509090517 | 19 | 0 | 0.0 | 0.0 | 0.00 | 0.00 | 0.00 | 95 | 1011.9 |
| 20260509090042 | 19 | 0 | 0.0 | 0.0 | 0.00 | 0.00 | 0.00 | 95 | 1011.9 |
| 20260509085518 | 19 | 0 | 0.0 | 0.0 | 0.00 | 0.00 | 0.00 | 95 | 1011.9 |
| 20260509085017 | 19 | 0 | 0.0 | 0.0 | 0.00 | 0.00 | 0.00 | 95 | 1012.1 |
| 20260509084541 | 19 | 0 | 0.0 | 0.0 | 0.00 | 0.00 | 0.00 | 95 | 1012.1 |
| 20260509084021 | 18 | 0 | 0.0 | 0.0 | 0.00 | 0.00 | 0.00 | 95 | 1012.1 |
| 20260509083520 | 19 | 0 | 0.0 | 0.0 | 0.00 | 0.00 | 0.00 | 95 | 1012.2 |
| 20260509083043 | 19 | 0 | 0.0 | 0.0 | 0.00 | 0.00 | 0.00 | 95 | 1012.2 |
| 20260509082516 | 20 | 0 | 0.0 | 0.0 | 0.00 | 0.00 | 0.00 | 95 | 1012.1 |
| 20260509082016 | 19 | 0 | 0.0 | 0.0 | 0.00 | 0.00 | 0.00 | 94 | 1012.0 |
| 20260509081539 | 20 | 0 | 0.0 | 0.0 | 0.00 | 0.00 | 0.00 | 95 | 1012.1 |
| 20260509081017 | 20 | 0 | 0.0 | 0.0 | 0.00 | 0.00 | 0.00 | 94 | 1012.0 |
| 20260509080518 | 20 | 0 | 0.0 | 0.0 | 0.00 | 0.00 | 0.00 | 94 | 1012.1 |
| 20260509080041 | 20 | 0 | 0.0 | 0.0 | 0.00 | 0.00 | 0.00 | 95 | 1012.1 |
| 20260509075517 | 20 | 0 | 0.0 | 0.0 | 0.00 | 0.00 | 0.00 | 95 | 1012.1 |
| 20260509075017 | 20 | 0 | 0.0 | 0.0 | 0.00 | 0.00 | 0.00 | 95 | 1012.3 |
| 20260509074536 | 20 | 0 | 0.0 | 0.0 | 0.00 | 0.00 | 0.00 | 95 | 1012.2 |
| 20260509074017 | 20 | 0 | 0.0 | 0.0 | 0.00 | 0.00 | 0.00 | 95 | 1012.3 |
| 20260509073521 | 20 | 0 | 0.0 | 0.0 | 0.00 | 0.00 | 0.00 | 94 | 1012.3 |
| 20260509073043 | 20 | 0 | 0.0 | 0.0 | 0.00 | 0.00 | 0.00 | 95 | 1012.4 |
| 20260509072517 | 20 | 0 | 0.0 | 0.0 | 0.00 | 0.00 | 0.00 | 94 | 1012.4 |
| 20260509072020 | 20 | 0 | 0.0 | 0.0 | 0.00 | 0.00 | 0.00 | 94 | 1012.4 |
| 20260509071533 | 20 | 0 | 0.0 | 0.0 | 0.00 | 0.00 | 0.00 | 94 | 1012.6 |
| 20260509071017 | 20 | 0 | 0.0 | 0.0 | 0.00 | 0.00 | 0.00 | 94 | 1012.6 |
| 20260509070517 | 20 | 0 | 0.0 | 0.0 | 0.00 | 0.00 | 0.00 | 94 | 1012.6 |
| 20260509070044 | 21 | 0 | 0.0 | 0.0 | 0.00 | 0.00 | 0.00 | 94 | 1012.7 |
| 20260509065516 | 21 | 0 | 0.0 | 0.0 | 0.00 | 0.00 | 0.00 | 94 | 1012.7 |
| 20260509065016 | 20 | 0 | 0.0 | 0.0 | 0.00 | 0.00 | 0.00 | 95 | 1012.7 |
| 20260509064541 | 20 | 0 | 0.0 | 0.0 | 0.00 | 0.00 | 0.00 | 95 | 1012.8 |
| 20260509064017 | 20 | 0 | 0.0 | 0.0 | 0.00 | 0.00 | 0.00 | 94 | 1012.9 |
| 20260509063523 | 20 | 0 | 0.0 | 0.0 | 0.00 | 0.00 | 0.00 | 94 | 1012.9 |
| 20260509063038 | 20 | 0 | 0.0 | 0.0 | 0.00 | 0.00 | 0.00 | 94 | 1012.9 |
| 20260509062518 | 20 | 0 | 0.0 | 0.0 | 0.00 | 0.00 | 0.00 | 94 | 1013.0 |
| 20260509062018 | 20 | 0 | 0.0 | 0.0 | 0.00 | 0.00 | 0.00 | 94 | 1013.1 |
| 20260509061538 | 20 | 0 | 0.0 | 0.0 | 0.00 | 0.00 | 0.00 | 94 | 1013.0 |
| 20260509061019 | 21 | 0 | 0.0 | 0.0 | 0.00 | 0.00 | 0.00 | 94 | 1013.1 |
| 20260509060516 | 20 | 0 | 0.0 | 0.0 | 0.00 | 0.00 | 0.00 | 94 | 1013.1 |
| 20260509060039 | 21 | 0 | 0.0 | 0.0 | 0.00 | 0.00 | 0.00 | 94 | 1013.0 |
| 20260509055520 | 21 | 0 | 0.0 | 0.0 | 0.00 | 0.00 | 0.00 | 94 | 1013.0 |
| 20260509055020 | 21 | 0 | 0.0 | 0.0 | 0.00 | 0.00 | 0.00 | 94 | 1013.1 |
| 20260509054558 | 20 | 0 | 0.0 | 0.0 | 0.00 | 0.00 | 0.00 | 94 | 1013.1 |
| 20260509054018 | 20 | 0 | 0.0 | 0.0 | 0.00 | 0.00 | 0.00 | 93 | 1013.3 |
| 20260509053517 | 20 | 0 | 0.0 | 0.0 | 0.00 | 0.00 | 0.00 | 92 | 1013.4 |
| 20260509053041 | 21 | 0 | 0.0 | 0.0 | 0.00 | 0.00 | 0.00 | 93 | 1013.5 |
| 20260509052519 | 21 | 0 | 0.0 | 0.0 | 0.00 | 0.00 | 0.00 | 93 | 1013.4 |
| 20260509052019 | 21 | 0 | 0.0 | 0.0 | 0.00 | 0.00 | 0.00 | 93 | 1013.4 |
| 20260509051539 | 21 | 0 | 0.0 | 0.0 | 0.00 | 0.00 | 0.00 | 92 | 1013.5 |
| 20260509051016 | 21 | 0 | 0.0 | 0.0 | 0.00 | 0.00 | 0.00 | 92 | 1013.6 |
| 20260509050517 | 21 | 0 | 0.0 | 0.0 | 0.00 | 0.00 | 0.00 | 93 | 1013.7 |
| 20260509050051 | 21 | 0 | 0.0 | 0.0 | 0.00 | 0.00 | 0.00 | 92 | 1013.8 |
| 20260509045516 | 21 | 0 | 0.0 | 0.0 | 0.00 | 0.00 | 0.00 | 91 | 1013.8 |
| 20260509045016 | 22 | 0 | 0.0 | 0.0 | 0.00 | 0.00 | 0.00 | 92 | 1013.8 |
| 20260509044537 | 22 | 0 | 0.0 | 0.0 | 0.00 | 0.00 | 0.00 | 92 | 1013.9 |
| 20260509044017 | 21 | 0 | 0.0 | 0.0 | 0.00 | 0.00 | 0.00 | 91 | 1014.0 |
| 20260509043522 | 21 | 0 | 0.0 | 0.0 | 0.00 | 0.00 | 0.00 | 91 | 1014.0 |
| 20260509043037 | 22 | 0 | 0.0 | 0.0 | 0.00 | 0.00 | 0.00 | 91 | 1014.0 |
| 20260509042520 | 22 | 0 | 0.0 | 0.0 | 0.00 | 0.00 | 0.00 | 91 | 1014.0 |
| 20260509042022 | 22 | 0 | 0.0 | 0.0 | 0.00 | 0.00 | 0.00 | 91 | 1014.0 |
| 20260509041532 | 22 | 0 | 0.0 | 0.0 | 0.00 | 0.00 | 0.00 | 90 | 1014.0 |
| 20260509041016 | 22 | 0 | 0.0 | 0.0 | 0.00 | 0.00 | 0.00 | 90 | 1013.9 |
| 20260509040519 | 22 | 0 | 0.0 | 0.0 | 0.00 | 0.00 | 0.00 | 90 | 1014.0 |
| 20260509040045 | 22 | 0 | 0.0 | 0.0 | 0.00 | 0.00 | 0.00 | 90 | 1014.1 |
| 20260509035522 | 22 | 0 | 0.0 | 1.6 | 0.00 | 0.00 | 0.00 | 89 | 1014.2 |
| 20260509035016 | 22 | 0 | 0.0 | 3.2 | 0.00 | 0.00 | 0.00 | 89 | 1014.2 |
| 20260509034541 | 22 | 0 | 0.0 | 3.2 | 0.00 | 0.00 | 0.00 | 89 | 1014.2 |
| 20260509034018 | 22 | 267 | 0.0 | 3.2 | 0.00 | 0.00 | 0.00 | 89 | 1014.2 |
| 20260509033520 | 23 | 0 | 0.0 | 0.0 | 0.00 | 0.00 | 0.00 | 89 | 1014.2 |
| 20260509033037 | 23 | 0 | 0.0 | 0.0 | 0.00 | 0.00 | 0.00 | 89 | 1014.2 |
| 20260509032519 | 23 | 0 | 0.0 | 1.6 | 0.00 | 0.00 | 0.00 | 89 | 1014.3 |
| 20260509032019 | 23 | 0 | 0.0 | 1.6 | 0.00 | 0.00 | 0.00 | 88 | 1014.1 |
| 20260509031549 | 23 | 342 | 0.0 | 1.6 | 0.00 | 0.00 | 0.00 | 88 | 1014.2 |
| 20260509031021 | 23 | 0 | 0.0 | 1.6 | 0.00 | 0.00 | 0.00 | 87 | 1014.2 |
| 20260509030523 | 23 | 0 | 0.0 | 0.0 | 0.00 | 0.00 | 0.00 | 87 | 1014.2 |
| 20260509030039 | 23 | 0 | 0.0 | 0.0 | 0.00 | 0.00 | 0.00 | 86 | 1014.2 |
| 20260509025519 | 24 | 0 | 0.0 | 0.0 | 0.00 | 0.00 | 0.00 | 86 | 1014.2 |
| 20260509025016 | 24 | 0 | 0.0 | 0.0 | 0.00 | 0.00 | 0.00 | 86 | 1014.1 |
| 20260509024540 | 24 | 0 | 0.0 | 0.0 | 0.00 | 0.00 | 0.00 | 86 | 1014.1 |
| 20260509024017 | 24 | 0 | 0.0 | 0.0 | 0.00 | 0.00 | 0.00 | 85 | 1014.3 |
| 20260509023516 | 24 | 0 | 0.0 | 0.0 | 0.00 | 0.00 | 0.00 | 85 | 1014.1 |
| 20260509023041 | 25 | 0 | 0.0 | 1.6 | 0.00 | 0.00 | 0.00 | 84 | 1014.1 |
| 20260509022523 | 25 | 0 | 0.0 | 4.8 | 0.00 | 0.00 | 0.00 | 84 | 1014.1 |
| 20260509022020 | 25 | 0 | 0.0 | 4.8 | 0.00 | 0.00 | 0.00 | 83 | 1014.1 |
| 20260509021537 | 25 | 284 | 1.6 | 4.8 | 0.00 | 0.00 | 0.00 | 83 | 1014.0 |
| 20260509021017 | 25 | 0 | 1.6 | 6.4 | 0.00 | 0.00 | 0.00 | 82 | 1014.0 |
| 20260509020521 | 25 | 279 | 1.6 | 6.4 | 0.00 | 0.00 | 0.00 | 82 | 1013.9 |
| 20260509020045 | 25 | 0 | 0.0 | 6.4 | 0.00 | 0.00 | 0.00 | 81 | 1013.7 |
| 20260509015516 | 25 | 0 | 0.0 | 6.4 | 0.00 | 0.00 | 0.00 | 81 | 1013.7 |
| 20260509015015 | 25 | 284 | 1.6 | 11.3 | 0.00 | 0.00 | 0.00 | 80 | 1013.7 |
| 20260509014535 | 25 | 291 | 1.6 | 11.3 | 0.00 | 0.00 | 0.00 | 79 | 1013.5 |
| 20260509014016 | 26 | 276 | 1.6 | 9.7 | 0.00 | 0.00 | 0.00 | 79 | 1013.5 |
| 20260509013516 | 26 | 279 | 1.6 | 11.3 | 0.00 | 0.00 | 0.00 | 78 | 1013.5 |
| 20260509013040 | 26 | 274 | 1.6 | 11.3 | 0.00 | 0.00 | 0.00 | 77 | 1013.5 |
| 20260509012521 | 26 | 276 | 4.8 | 11.3 | 0.00 | 0.00 | 0.00 | 77 | 1013.4 |
| 20260509012016 | 26 | 267 | 3.2 | 9.7 | 0.00 | 0.00 | 0.00 | 77 | 1013.3 |
| 20260509011546 | 26 | 294 | 3.2 | 9.7 | 0.00 | 0.00 | 0.00 | 77 | 1013.3 |
| 20260509011021 | 26 | 0 | 3.2 | 11.3 | 0.00 | 0.00 | 0.00 | 76 | 1013.3 |
| 20260509010518 | 26 | 250 | 4.8 | 11.3 | 0.00 | 0.00 | 0.00 | 76 | 1013.2 |
| 20260509010042 | 26 | 0 | 1.6 | 4.8 | 0.00 | 0.00 | 0.00 | 75 | 1013.2 |
| 20260509005517 | 26 | 276 | 0.0 | 12.9 | 0.00 | 0.00 | 0.00 | 75 | 1013.1 |
| 20260509005017 | 26 | 275 | 3.2 | 17.7 | 0.00 | 0.00 | 0.00 | 74 | 1013.1 |
| 20260509004547 | 26 | 266 | 4.8 | 17.7 | 0.00 | 0.00 | 0.00 | 73 | 1012.9 |
| 20260509004017 | 26 | 309 | 8.0 | 17.7 | 0.00 | 0.00 | 0.00 | 73 | 1012.9 |
| 20260509003516 | 26 | 281 | 6.4 | 14.5 | 0.00 | 0.00 | 0.00 | 72 | 1012.8 |
| 20260509003036 | 26 | 305 | 4.8 | 17.7 | 0.00 | 0.00 | 0.00 | 72 | 1012.8 |
| 20260509002516 | 27 | 288 | 8.0 | 17.7 | 0.00 | 0.00 | 0.00 | 71 | 1012.7 |
| 20260509002021 | 27 | 279 | 6.4 | 17.7 | 0.00 | 0.00 | 0.00 | 70 | 1012.5 |
| 20260509001541 | 27 | 273 | 9.7 | 17.7 | 0.00 | 0.00 | 0.00 | 70 | 1012.5 |
| 20260509001019 | 27 | 292 | 8.0 | 16.1 | 0.00 | 0.00 | 0.00 | 69 | 1012.4 |
| 20260509000519 | 27 | 252 | 9.7 | 16.1 | 0.00 | 0.00 | 0.00 | 68 | 1012.2 |
| 20260509000053 | 27 | 270 | 6.4 | 17.7 | 0.00 | 0.00 | 0.00 | 67 | 1012.1 |
| 20260508235517 | 28 | 280 | 9.7 | 19.3 | 0.00 | 0.00 | 0.00 | 66 | 1012.1 |
| 20260508235016 | 28 | 300 | 11.3 | 24.1 | 0.00 | 0.00 | 0.00 | 66 | 1011.8 |
| 20260508234538 | 28 | 284 | 14.5 | 24.1 | 0.00 | 0.00 | 0.00 | 65 | 1011.8 |
| 20260508234016 | 28 | 266 | 12.9 | 24.1 | 0.00 | 0.00 | 0.00 | 63 | 1011.6 |
| 20260508233516 | 28 | 266 | 16.1 | 24.1 | 0.00 | 0.00 | 0.00 | 62 | 1011.5 |
| 20260508233037 | 29 | 273 | 14.5 | 22.5 | 0.00 | 0.00 | 0.00 | 60 | 1011.4 |
| 20260508232516 | 29 | 298 | 14.5 | 24.1 | 0.00 | 0.00 | 0.00 | 60 | 1011.4 |
| 20260508232020 | 30 | 313 | 14.5 | 24.1 | 0.00 | 0.00 | 0.00 | 60 | 1011.3 |
| 20260508231534 | 30 | 268 | 11.3 | 19.3 | 0.00 | 0.00 | 0.00 | 60 | 1011.2 |
| 20260508231016 | 30 | 272 | 12.9 | 24.1 | 0.00 | 0.00 | 0.00 | 59 | 1011.0 |
| 20260508230521 | 30 | 273 | 12.9 | 27.4 | 0.00 | 0.00 | 0.00 | 59 | 1010.9 |
| 20260508230041 | 30 | 259 | 16.1 | 27.4 | 0.00 | 0.00 | 0.00 | 58 | 1010.8 |
| 20260508225520 | 31 | 263 | 17.7 | 25.7 | 0.00 | 0.00 | 0.00 | 57 | 1010.8 |
| 20260508225022 | 31 | 256 | 14.5 | 25.7 | 0.00 | 0.00 | 0.00 | 56 | 1010.7 |
| 20260508224541 | 31 | 267 | 17.7 | 25.7 | 0.00 | 0.00 | 0.00 | 53 | 1010.7 |
| 20260508224017 | 31 | 267 | 11.3 | 25.7 | 0.00 | 0.00 | 0.00 | 54 | 1010.6 |
| 20260508223516 | 31 | 291 | 16.1 | 25.7 | 0.00 | 0.00 | 0.00 | 53 | 1010.4 |
| 20260508223039 | 31 | 290 | 12.9 | 22.5 | 0.00 | 0.00 | 0.00 | 54 | 1010.4 |
| 20260508222517 | 32 | 250 | 11.3 | 25.7 | 0.00 | 0.00 | 0.00 | 53 | 1010.3 |
| 20260508222016 | 32 | 288 | 16.1 | 25.7 | 0.00 | 0.00 | 0.00 | 54 | 1010.4 |
| 20260508221539 | 32 | 273 | 11.3 | 20.9 | 0.00 | 0.00 | 0.00 | 53 | 1010.3 |
| 20260508221016 | 32 | 281 | 12.9 | 19.3 | 0.00 | 0.00 | 0.00 | 52 | 1010.2 |
| 20260508220516 | 32 | 259 | 8.0 | 19.3 | 0.00 | 0.00 | 0.00 | 52 | 1010.2 |
| 20260508220045 | 32 | 278 | 9.7 | 20.9 | 0.00 | 0.00 | 0.00 | 52 | 1010.1 |
| 20260508215520 | 32 | 301 | 11.3 | 20.9 | 0.00 | 0.00 | 0.00 | 51 | 1010.1 |
| 20260508215020 | 32 | 292 | 11.3 | 17.7 | 0.00 | 0.00 | 0.00 | 50 | 1010.0 |
| 20260508214532 | 32 | 283 | 9.7 | 16.1 | 0.00 | 0.00 | 0.00 | 51 | 1009.9 |
| 20260508214018 | 33 | 307 | 9.7 | 20.9 | 0.00 | 0.00 | 0.00 | 52 | 1010.0 |
| 20260508213519 | 32 | 243 | 11.3 | 20.9 | 0.00 | 0.00 | 0.00 | 51 | 1010.0 |
| 20260508213046 | 33 | 273 | 14.5 | 19.3 | 0.00 | 0.00 | 0.00 | 49 | 1009.9 |
| 20260508212519 | 33 | 174 | 4.8 | 20.9 | 0.00 | 0.00 | 0.00 | 47 | 1010.0 |
| 20260508212021 | 33 | 246 | 11.3 | 22.5 | 0.00 | 0.00 | 0.00 | 48 | 1010.0 |
| 20260508211536 | 33 | 266 | 9.7 | 22.5 | 0.00 | 0.00 | 0.00 | 48 | 1010.0 |
| 20260508211022 | 33 | 283 | 14.5 | 20.9 | 0.00 | 0.00 | 0.00 | 48 | 1009.9 |
| 20260508210520 | 33 | 252 | 8.0 | 24.1 | 0.00 | 0.00 | 0.00 | 48 | 1009.9 |
| 20260508210036 | 33 | 264 | 14.5 | 24.1 | 0.00 | 0.00 | 0.00 | 47 | 1010.2 |
| 20260508205519 | 33 | 263 | 4.8 | 19.3 | 0.00 | 0.00 | 0.00 | 45 | 1010.0 |
| 20260508205018 | 33 | 280 | 8.0 | 22.5 | 0.00 | 0.00 | 0.00 | 46 | 1010.1 |
| 20260508204537 | 33 | 255 | 16.1 | 22.5 | 0.00 | 0.00 | 0.00 | 46 | 1010.0 |
| 20260508204018 | 34 | 244 | 11.3 | 22.5 | 0.00 | 0.00 | 0.00 | 47 | 1010.1 |
| 20260508203519 | 34 | 272 | 11.3 | 22.5 | 0.00 | 0.00 | 0.00 | 46 | 1010.2 |
| 20260508203046 | 34 | 247 | 4.8 | 22.5 | 0.00 | 0.00 | 0.00 | 45 | 1010.4 |
| 20260508202521 | 34 | 252 | 12.9 | 20.9 | 0.00 | 0.00 | 0.00 | 45 | 1010.3 |
| 20260508202016 | 34 | 246 | 9.7 | 20.9 | 0.00 | 0.00 | 0.00 | 45 | 1010.4 |
| 20260508201541 | 33 | 295 | 3.2 | 12.9 | 0.00 | 0.00 | 0.00 | 47 | 1010.6 |
| 20260508201020 | 32 | 272 | 3.2 | 12.9 | 0.00 | 0.00 | 0.00 | 48 | 1010.6 |
| 20260508200520 | 33 | 288 | 8.0 | 19.3 | 0.00 | 0.00 | 0.00 | 45 | 1010.8 |
| 20260508200050 | 33 | 272 | 6.4 | 20.9 | 0.00 | 0.00 | 0.00 | 45 | 1011.0 |
| 20260508195519 | 34 | 273 | 12.9 | 24.1 | 0.00 | 0.00 | 0.00 | 44 | 1011.0 |
| 20260508195019 | 34 | 242 | 14.5 | 25.7 | 0.00 | 0.00 | 0.00 | 45 | 1011.0 |
| 20260508194540 | 33 | 284 | 6.4 | 25.7 | 0.00 | 0.00 | 0.00 | 45 | 1011.1 |
| 20260508194019 | 34 | 282 | 11.3 | 24.1 | 0.00 | 0.00 | 0.00 | 46 | 1011.1 |
| 20260508193519 | 33 | 278 | 3.2 | 19.3 | 0.00 | 0.00 | 0.00 | 45 | 1011.1 |
| 20260508193037 | 33 | 249 | 8.0 | 19.3 | 0.00 | 0.00 | 0.00 | 44 | 1011.2 |
| 20260508192519 | 34 | 293 | 8.0 | 19.3 | 0.00 | 0.00 | 0.00 | 42 | 1011.2 |
| 20260508192017 | 34 | 268 | 4.8 | 17.7 | 0.00 | 0.00 | 0.00 | 42 | 1011.5 |
| 20260508191536 | 33 | 269 | 4.8 | 19.3 | 0.00 | 0.00 | 0.00 | 45 | 1011.5 |
| 20260508191018 | 33 | 244 | 11.3 | 19.3 | 0.00 | 0.00 | 0.00 | 45 | 1011.6 |
| 20260508190518 | 33 | 0 | 9.7 | 17.7 | 0.00 | 0.00 | 0.00 | 46 | 1011.6 |
| 20260508190042 | 33 | 243 | 0.0 | 9.7 | 0.00 | 0.00 | 0.00 | 47 | 1011.7 |
| 20260508185518 | 33 | 234 | 1.6 | 19.3 | 0.00 | 0.00 | 0.00 | 46 | 1011.9 |
| 20260508185018 | 33 | 290 | 3.2 | 19.3 | 0.00 | 0.00 | 0.00 | 46 | 1012.0 |
| 20260508184535 | 33 | 341 | 9.7 | 19.3 | 0.00 | 0.00 | 0.00 | 48 | 1012.1 |
| 20260508184018 | 33 | 260 | 4.8 | 12.9 | 0.00 | 0.00 | 0.00 | 47 | 1012.2 |
| 20260508183517 | 33 | 252 | 3.2 | 16.1 | 0.00 | 0.00 | 0.00 | 46 | 1012.3 |
| 20260508183039 | 33 | 0 | 8.0 | 16.1 | 0.00 | 0.00 | 0.00 | 48 | 1012.4 |
| 20260508182518 | 32 | 259 | 6.4 | 16.1 | 0.00 | 0.00 | 0.00 | 50 | 1012.5 |
| 20260508182024 | 32 | 254 | 9.7 | 16.1 | 0.00 | 0.00 | 0.00 | 52 | 1012.7 |
| 20260508181604 | 32 | 0 | 0.0 | 14.5 | 0.00 | 0.00 | 0.00 | 50 | 1012.8 |
| 20260508181019 | 33 | 281 | 6.4 | 16.1 | 0.00 | 0.00 | 0.00 | 48 | 1012.8 |
| 20260508180518 | 33 | 296 | 0.0 | 22.5 | 0.00 | 0.00 | 0.00 | 50 | 1012.9 |
| 20260508180041 | 33 | 255 | 12.9 | 22.5 | 0.00 | 0.00 | 0.00 | 48 | 1012.9 |
| 20260508175517 | 33 | 273 | 6.4 | 19.3 | 0.00 | 0.00 | 0.00 | 50 | 1013.0 |
| 20260508175017 | 33 | 0 | 4.8 | 12.9 | 0.00 | 0.00 | 0.00 | 51 | 1013.0 |
| 20260508174538 | 31 | 282 | 6.4 | 14.5 | 0.00 | 0.00 | 0.00 | 55 | 1013.0 |
| 20260508174018 | 31 | 247 | 4.8 | 14.5 | 0.00 | 0.00 | 0.00 | 55 | 1013.1 |
| 20260508173518 | 31 | 0 | 3.2 | 11.3 | 0.00 | 0.00 | 0.00 | 55 | 1013.2 |
| 20260508173035 | 32 | 46 | 1.6 | 16.1 | 0.00 | 0.00 | 0.00 | 53 | 1013.2 |
| 20260508172517 | 32 | 136 | 6.4 | 19.3 | 0.00 | 0.00 | 0.00 | 53 | 1013.3 |
| 20260508172022 | 31 | 246 | 8.0 | 19.3 | 0.00 | 0.00 | 0.00 | 55 | 1013.4 |
| 20260508171531 | 32 | 224 | 6.4 | 17.7 | 0.00 | 0.00 | 0.00 | 52 | 1013.4 |
| 20260508171017 | 32 | 106 | 1.6 | 20.9 | 0.00 | 0.00 | 0.00 | 51 | 1013.5 |
| 20260508170522 | 32 | 0 | 8.0 | 20.9 | 0.00 | 0.00 | 0.00 | 53 | 1013.6 |
| 20260508170041 | 32 | 232 | 4.8 | 19.3 | 0.00 | 0.00 | 0.00 | 56 | 1013.7 |
| 20260508165516 | 30 | 265 | 8.0 | 19.3 | 0.00 | 0.00 | 0.00 | 59 | 1013.8 |
| 20260508165019 | 31 | 246 | 6.4 | 19.3 | 0.00 | 0.00 | 0.00 | 57 | 1013.9 |
| 20260508164541 | 31 | 239 | 8.0 | 20.9 | 0.00 | 0.00 | 0.00 | 55 | 1013.9 |
| 20260508164020 | 31 | 260 | 9.7 | 20.9 | 0.00 | 0.00 | 0.00 | 55 | 1014.0 |
| 20260508163516 | 31 | 229 | 8.0 | 19.3 | 0.00 | 0.00 | 0.00 | 57 | 1014.0 |
| 20260508163037 | 31 | 225 | 1.6 | 17.7 | 0.00 | 0.00 | 0.00 | 58 | 1014.1 |
| 20260508162520 | 31 | 285 | 8.0 | 17.7 | 0.00 | 0.00 | 0.00 | 61 | 1014.1 |
| 20260508162020 | 31 | 253 | 4.8 | 14.5 | 0.00 | 0.00 | 0.00 | 61 | 1014.3 |
| 20260508161537 | 31 | 259 | 3.2 | 17.7 | 0.00 | 0.00 | 0.00 | 62 | 1014.3 |
| 20260508161020 | 31 | 286 | 11.3 | 17.7 | 0.00 | 0.00 | 0.00 | 63 | 1014.4 |
| 20260508160516 | 30 | 298 | 6.4 | 16.1 | 0.00 | 0.00 | 0.00 | 64 | 1014.4 |
| 20260508160039 | 30 | 252 | 6.4 | 17.7 | 0.00 | 0.00 | 0.00 | 64 | 1014.5 |